| time (UTC) | temp F | wind direction | speed knots | gust knots | rain 1hr in | rain 24hr in | rain mn in | humidity % | barometer mb |
| 20260505053441 | 41 | 128 | 0.9 | 2.6 | 0.00 | 0.00 | 0.00 | 56 | 1017.0 |
| 20260505052938 | 41 | 84 | 2.6 | 4.3 | 0.00 | 0.00 | 0.00 | 55 | 1017.0 |
| 20260505052435 | 41 | 99 | 2.6 | 2.6 | 0.00 | 0.00 | 0.00 | 55 | 1017.0 |
| 20260505051932 | 42 | 92 | 3.5 | 4.3 | 0.00 | 0.00 | 0.00 | 54 | 1017.1 |
| 20260505051429 | 42 | 116 | 2.6 | 3.5 | 0.00 | 0.00 | 0.00 | 53 | 1017.1 |
| 20260505050927 | 43 | 104 | 1.7 | 1.7 | 0.00 | 0.00 | 0.00 | 53 | 1017.0 |
| 20260505050425 | 43 | 66 | 1.7 | 2.6 | 0.00 | 0.00 | 0.00 | 53 | 1017.1 |
| 20260505041353 | 44 | 53 | 4.3 | 4.3 | 0.00 | 0.00 | 0.00 | 52 | 1016.4 |
| 20260505040850 | 45 | 62 | 2.6 | 2.6 | 0.00 | 0.00 | 0.00 | 49 | 1016.3 |
| 20260505040347 | 46 | 12 | 2.6 | 4.3 | 0.00 | 0.00 | 0.00 | 47 | 1016.3 |
| 20260505035844 | 46 | 24 | 3.5 | 5.2 | 0.00 | 0.00 | 0.00 | 47 | 1016.3 |
| 20260505035339 | 46 | 7 | 6.1 | 7.8 | 0.00 | 0.00 | 0.00 | 47 | 1016.0 |
| 20260505034837 | 46 | 346 | 2.6 | 4.3 | 0.00 | 0.00 | 0.00 | 49 | 1016.2 |
| 20260505034333 | 46 | 316 | 7.0 | 9.6 | 0.00 | 0.00 | 0.00 | 47 | 1015.9 |
| 20260505033831 | 46 | 322 | 5.2 | 7.0 | 0.00 | 0.00 | 0.00 | 47 | 1016.0 |
| 20260505033328 | 47 | 336 | 4.3 | 12.2 | 0.00 | 0.00 | 0.00 | 47 | 1015.8 |
| 20260505032826 | 47 | 331 | 4.3 | 10.4 | 0.00 | 0.00 | 0.00 | 47 | 1016.0 |
| 20260505032322 | 48 | 332 | 5.2 | 13.0 | 0.00 | 0.00 | 0.00 | 45 | 1015.8 |
| 20260505031819 | 48 | 308 | 7.8 | 10.4 | 0.00 | 0.00 | 0.00 | 46 | 1015.6 |
| 20260505031315 | 48 | 299 | 7.0 | 7.8 | 0.00 | 0.00 | 0.00 | 45 | 1015.6 |
| 20260505030813 | 48 | 306 | 3.5 | 5.2 | 0.00 | 0.00 | 0.00 | 45 | 1015.5 |
| 20260505030310 | 49 | 301 | 5.2 | 10.4 | 0.00 | 0.00 | 0.00 | 43 | 1015.5 |
| 20260505025804 | 49 | 301 | 7.0 | 9.6 | 0.00 | 0.00 | 0.00 | 43 | 1015.4 |
| 20260505025304 | 49 | 319 | 3.5 | 8.7 | 0.00 | 0.00 | 0.00 | 43 | 1015.2 |
| 20260505024801 | 49 | 316 | 4.3 | 7.8 | 0.00 | 0.00 | 0.00 | 43 | 1015.2 |
| 20260505024258 | 49 | 339 | 2.6 | 5.2 | 0.00 | 0.00 | 0.00 | 43 | 1015.4 |
| 20260505023755 | 50 | 313 | 5.2 | 7.8 | 0.00 | 0.00 | 0.00 | 43 | 1015.5 |
| 20260505023252 | 49 | 340 | 3.5 | 6.1 | 0.00 | 0.00 | 0.00 | 43 | 1015.1 |
| 20260505022749 | 49 | 300 | 1.7 | 6.1 | 0.00 | 0.00 | 0.00 | 44 | 1015.2 |
| 20260505022246 | 50 | 317 | 4.3 | 7.0 | 0.00 | 0.00 | 0.00 | 43 | 1015.4 |
| 20260505021743 | 50 | 318 | 4.3 | 7.0 | 0.00 | 0.00 | 0.00 | 43 | 1015.1 |
| 20260505021240 | 51 | 317 | 4.3 | 7.0 | 0.00 | 0.00 | 0.00 | 41 | 1015.0 |
| 20260505020735 | 51 | 354 | 2.6 | 3.5 | 0.00 | 0.00 | 0.00 | 41 | 1015.1 |
| 20260505020231 | 50 | 14 | 3.5 | 5.2 | 0.00 | 0.00 | 0.00 | 42 | 1014.8 |
| 20260505015728 | 50 | 323 | 4.3 | 7.0 | 0.00 | 0.00 | 0.00 | 43 | 1015.0 |
| 20260505015225 | 51 | 316 | 5.2 | 8.7 | 0.00 | 0.00 | 0.00 | 42 | 1015.0 |
| 20260505014722 | 51 | 321 | 7.8 | 13.0 | 0.00 | 0.00 | 0.00 | 40 | 1015.0 |
| 20260505014220 | 52 | 334 | 4.3 | 5.2 | 0.00 | 0.00 | 0.00 | 40 | 1015.0 |
| 20260505013716 | 52 | 13 | 3.5 | 5.2 | 0.00 | 0.00 | 0.00 | 39 | 1014.9 |
| 20260505013213 | 52 | 318 | 8.7 | 11.3 | 0.00 | 0.00 | 0.00 | 38 | 1015.1 |
| 20260505012712 | 52 | 343 | 4.3 | 7.8 | 0.00 | 0.00 | 0.00 | 37 | 1014.9 |
| 20260505012208 | 52 | 317 | 8.7 | 15.6 | 0.00 | 0.00 | 0.00 | 39 | 1014.8 |
| 20260505011704 | 52 | 322 | 10.4 | 13.0 | 0.00 | 0.00 | 0.00 | 39 | 1014.8 |
| 20260505011201 | 53 | 318 | 4.3 | 7.0 | 0.00 | 0.00 | 0.00 | 40 | 1014.7 |
| 20260505010657 | 53 | 352 | 4.3 | 7.8 | 0.00 | 0.00 | 0.00 | 38 | 1014.7 |
| 20260505010154 | 53 | 342 | 3.5 | 6.1 | 0.00 | 0.00 | 0.00 | 39 | 1014.8 |
| 20260505005650 | 53 | 331 | 3.5 | 7.8 | 0.00 | 0.00 | 0.00 | 39 | 1014.8 |
| 20260505005147 | 53 | 322 | 7.8 | 8.7 | 0.00 | 0.00 | 0.00 | 39 | 1014.7 |
| 20260505004644 | 53 | 309 | 8.7 | 14.8 | 0.00 | 0.00 | 0.00 | 37 | 1014.7 |
| 20260505004140 | 53 | 318 | 5.2 | 11.3 | 0.00 | 0.00 | 0.00 | 38 | 1014.7 |
| 20260505003638 | 53 | 308 | 4.3 | 10.4 | 0.00 | 0.00 | 0.00 | 38 | 1014.7 |
| 20260505003135 | 53 | 313 | 9.6 | 10.4 | 0.00 | 0.00 | 0.00 | 37 | 1014.7 |
| 20260505002631 | 53 | 313 | 11.3 | 14.8 | 0.00 | 0.00 | 0.00 | 37 | 1014.7 |
| 20260505002130 | 53 | 316 | 7.8 | 13.0 | 0.00 | 0.00 | 0.00 | 37 | 1014.6 |
| 20260505001626 | 54 | 346 | 7.8 | 13.0 | 0.00 | 0.00 | 0.00 | 35 | 1014.4 |
| 20260505001124 | 53 | 341 | 6.1 | 13.0 | 0.00 | 0.00 | 0.00 | 36 | 1014.8 |
| 20260505000621 | 53 | 315 | 7.0 | 14.8 | 0.00 | 0.00 | 0.00 | 37 | 1014.3 |
| 20260505000119 | 53 | 320 | 8.7 | 13.0 | 0.00 | 0.00 | 0.00 | 37 | 1014.4 |
| 20260504235615 | 53 | 320 | 11.3 | 16.5 | 0.00 | 0.00 | 0.00 | 37 | 1014.6 |
| 20260504235111 | 53 | 308 | 13.0 | 17.4 | 0.00 | 0.00 | 0.00 | 36 | 1014.6 |
| 20260504234609 | 54 | 314 | 13.0 | 19.1 | 0.00 | 0.00 | 0.00 | 37 | 1014.3 |
| 20260504234106 | 54 | 332 | 7.0 | 13.0 | 0.00 | 0.00 | 0.00 | 37 | 1014.4 |
| 20260504233601 | 54 | 317 | 9.6 | 15.6 | 0.00 | 0.00 | 0.00 | 36 | 1014.3 |
| 20260504233057 | 54 | 303 | 11.3 | 15.6 | 0.00 | 0.00 | 0.00 | 36 | 1014.2 |
| 20260504232555 | 54 | 320 | 10.4 | 15.6 | 0.00 | 0.00 | 0.00 | 35 | 1014.3 |
| 20260504232052 | 55 | 301 | 13.0 | 16.5 | 0.00 | 0.00 | 0.00 | 35 | 1014.1 |
| 20260504231548 | 55 | 328 | 9.6 | 17.4 | 0.00 | 0.00 | 0.00 | 35 | 1014.3 |
| 20260504231045 | 56 | 333 | 7.8 | 13.9 | 0.00 | 0.00 | 0.00 | 34 | 1014.0 |
| 20260504230541 | 56 | 333 | 9.6 | 15.6 | 0.00 | 0.00 | 0.00 | 35 | 1014.0 |
| 20260504230040 | 57 | 311 | 7.8 | 10.4 | 0.00 | 0.00 | 0.00 | 34 | 1014.3 |
| 20260504225537 | 57 | 312 | 8.7 | 13.9 | 0.00 | 0.00 | 0.00 | 32 | 1014.3 |
| 20260504225034 | 56 | 314 | 7.0 | 13.0 | 0.00 | 0.00 | 0.00 | 34 | 1014.0 |
| 20260504224530 | 56 | 325 | 11.3 | 13.9 | 0.00 | 0.00 | 0.00 | 34 | 1014.1 |
| 20260504224028 | 57 | 84 | 1.7 | 2.6 | 0.00 | 0.00 | 0.00 | 33 | 1014.2 |
| 20260504223525 | 57 | 306 | 5.2 | 12.2 | 0.00 | 0.00 | 0.00 | 36 | 1014.2 |
| 20260504223020 | 58 | 324 | 7.8 | 9.6 | 0.00 | 0.00 | 0.00 | 34 | 1014.3 |
| 20260504222517 | 58 | 327 | 3.5 | 9.6 | 0.00 | 0.00 | 0.00 | 35 | 1014.2 |
| 20260504222015 | 58 | 317 | 3.5 | 4.3 | 0.00 | 0.00 | 0.00 | 34 | 1014.2 |
| 20260504221512 | 59 | 345 | 2.6 | 2.6 | 0.00 | 0.00 | 0.00 | 37 | 1014.2 |
| 20260504221009 | 58 | 64 | 2.6 | 5.2 | 0.00 | 0.00 | 0.00 | 37 | 1014.1 |
| 20260504220505 | 57 | 30 | 5.2 | 9.6 | 0.00 | 0.00 | 0.00 | 33 | 1014.2 |
| 20260504220002 | 57 | 329 | 1.7 | 5.2 | 0.00 | 0.00 | 0.00 | 34 | 1014.3 |
| 20260504215459 | 57 | 309 | 4.3 | 5.2 | 0.00 | 0.00 | 0.00 | 36 | 1014.3 |
| 20260504214955 | 55 | 11 | 4.3 | 5.2 | 0.00 | 0.00 | 0.00 | 40 | 1014.4 |
| 20260504214452 | 55 | 18 | 3.5 | 7.8 | 0.00 | 0.00 | 0.00 | 36 | 1014.6 |
| 20260504213948 | 55 | 56 | 1.7 | 3.5 | 0.00 | 0.00 | 0.00 | 40 | 1014.6 |
| 20260504213444 | 55 | 20 | 5.2 | 7.0 | 0.00 | 0.00 | 0.00 | 37 | 1014.4 |
| 20260504212942 | 55 | 32 | 4.3 | 9.6 | 0.00 | 0.00 | 0.00 | 36 | 1014.7 |
| 20260504212438 | 55 | 8 | 4.3 | 11.3 | 0.00 | 0.00 | 0.00 | 41 | 1014.6 |
| 20260504211936 | 55 | 29 | 6.1 | 8.7 | 0.00 | 0.00 | 0.00 | 38 | 1014.7 |
| 20260504211432 | 54 | 325 | 6.1 | 9.6 | 0.00 | 0.00 | 0.00 | 39 | 1014.4 |
| 20260504210929 | 54 | 346 | 2.6 | 7.0 | 0.00 | 0.00 | 0.00 | 40 | 1014.6 |
| 20260504210426 | 54 | 39 | 6.1 | 8.7 | 0.00 | 0.00 | 0.00 | 39 | 1014.6 |
| 20260504205923 | 54 | 16 | 7.0 | 13.9 | 0.00 | 0.00 | 0.00 | 38 | 1014.6 |
| 20260504205421 | 55 | 22 | 7.8 | 11.3 | 0.00 | 0.00 | 0.00 | 40 | 1014.4 |
| 20260504204919 | 54 | 9 | 5.2 | 7.8 | 0.00 | 0.00 | 0.00 | 40 | 1014.4 |
| 20260504204417 | 55 | 7 | 7.8 | 7.8 | 0.00 | 0.00 | 0.00 | 39 | 1014.7 |
| 20260504203916 | 55 | 5 | 5.2 | 5.2 | 0.00 | 0.00 | 0.00 | 39 | 1014.7 |
| 20260504203413 | 55 | 20 | 6.1 | 9.6 | 0.00 | 0.00 | 0.00 | 38 | 1014.4 |
| 20260504202908 | 55 | 322 | 4.3 | 7.8 | 0.00 | 0.00 | 0.00 | 38 | 1014.8 |
| 20260504202406 | 55 | 52 | 5.2 | 9.6 | 0.00 | 0.00 | 0.00 | 39 | 1014.6 |
| 20260504201902 | 55 | 18 | 4.3 | 8.7 | 0.00 | 0.00 | 0.00 | 38 | 1014.8 |
| 20260504201400 | 55 | 20 | 4.3 | 9.6 | 0.00 | 0.00 | 0.00 | 38 | 1014.7 |
| 20260504200857 | 55 | 4 | 3.5 | 5.2 | 0.00 | 0.00 | 0.00 | 38 | 1014.7 |
| 20260504200354 | 55 | 358 | 6.1 | 8.7 | 0.00 | 0.00 | 0.00 | 38 | 1014.6 |
| 20260504195850 | 55 | 5 | 6.1 | 7.8 | 0.00 | 0.00 | 0.00 | 38 | 1014.7 |
| 20260504195345 | 55 | 343 | 5.2 | 7.8 | 0.00 | 0.00 | 0.00 | 39 | 1014.3 |
| 20260504194843 | 55 | 28 | 3.5 | 7.8 | 0.00 | 0.00 | 0.00 | 37 | 1014.7 |
| 20260504194339 | 56 | 0 | 4.3 | 9.6 | 0.00 | 0.00 | 0.00 | 37 | 1014.6 |
| 20260504193835 | 57 | 320 | 4.3 | 7.8 | 0.00 | 0.00 | 0.00 | 38 | 1014.7 |
| 20260504193332 | 56 | 27 | 1.7 | 3.5 | 0.00 | 0.00 | 0.00 | 35 | 1014.7 |
| 20260504192831 | 56 | 12 | 4.3 | 7.8 | 0.00 | 0.00 | 0.00 | 34 | 1014.8 |
| 20260504192328 | 57 | 223 | 0.0 | 2.6 | 0.00 | 0.00 | 0.00 | 35 | 1014.8 |
| 20260504191827 | 57 | 327 | 1.7 | 2.6 | 0.00 | 0.00 | 0.00 | 33 | 1014.7 |
| 20260504191324 | 57 | 75 | 1.7 | 3.5 | 0.00 | 0.00 | 0.00 | 34 | 1014.8 |
| 20260504190819 | 57 | 74 | 0.9 | 5.2 | 0.00 | 0.00 | 0.00 | 38 | 1014.8 |
| 20260504190315 | 57 | 347 | 0.9 | 7.0 | 0.00 | 0.00 | 0.00 | 37 | 1015.0 |
| 20260504185812 | 58 | 30 | 0.9 | 7.8 | 0.00 | 0.00 | 0.00 | 33 | 1015.0 |
| 20260504185309 | 59 | 121 | 1.7 | 3.5 | 0.00 | 0.00 | 0.00 | 33 | 1015.1 |
| 20260504184805 | 59 | 178 | 2.6 | 2.6 | 0.00 | 0.00 | 0.00 | 44 | 1014.8 |
| 20260504184301 | 58 | 110 | 1.7 | 5.2 | 0.00 | 0.00 | 0.00 | 37 | 1015.0 |
| 20260504183757 | 58 | 343 | 1.7 | 4.3 | 0.00 | 0.00 | 0.00 | 36 | 1015.0 |
| 20260504183254 | 59 | 155 | 3.5 | 6.1 | 0.00 | 0.00 | 0.00 | 35 | 1014.9 |
| 20260504182752 | 59 | 189 | 3.5 | 4.3 | 0.00 | 0.00 | 0.00 | 31 | 1015.0 |
| 20260504182249 | 58 | 356 | 0.9 | 4.3 | 0.00 | 0.00 | 0.00 | 37 | 1015.1 |
| 20260504181747 | 58 | 168 | 1.7 | 5.2 | 0.00 | 0.00 | 0.00 | 36 | 1015.4 |
| 20260504181244 | 57 | 343 | 5.2 | 6.1 | 0.00 | 0.00 | 0.00 | 37 | 1015.0 |
| 20260504180743 | 58 | 341 | 1.7 | 7.0 | 0.00 | 0.00 | 0.00 | 35 | 1015.2 |
| 20260504180241 | 56 | 101 | 1.7 | 4.3 | 0.00 | 0.00 | 0.00 | 38 | 1015.2 |
| 20260504175738 | 56 | 108 | 4.3 | 6.1 | 0.00 | 0.00 | 0.00 | 37 | 1015.4 |
| 20260504175235 | 55 | 166 | 3.5 | 6.1 | 0.00 | 0.00 | 0.00 | 42 | 1015.7 |
| 20260504174733 | 55 | 314 | 5.2 | 5.2 | 0.00 | 0.00 | 0.00 | 36 | 1015.5 |
| 20260504174231 | 56 | 244 | 1.7 | 4.3 | 0.00 | 0.00 | 0.00 | 36 | 1015.5 |
| 20260504173727 | 56 | 166 | 1.7 | 2.6 | 0.00 | 0.00 | 0.00 | 39 | 1015.5 |
| 20260504173224 | 56 | 19 | 0.0 | 1.7 | 0.00 | 0.00 | 0.00 | 40 | 1015.6 |
| 20260504172721 | 55 | 144 | 4.3 | 7.8 | 0.00 | 0.00 | 0.00 | 36 | 1015.5 |
| 20260504172217 | 56 | 101 | 7.0 | 7.8 | 0.00 | 0.00 | 0.00 | 38 | 1015.5 |
| 20260504171714 | 56 | 328 | 4.3 | 4.3 | 0.00 | 0.00 | 0.00 | 41 | 1015.6 |
| 20260504171211 | 55 | 122 | 3.5 | 4.3 | 0.00 | 0.00 | 0.00 | 35 | 1015.5 |
| 20260504170707 | 55 | 162 | 2.6 | 5.2 | 0.00 | 0.00 | 0.00 | 36 | 1015.5 |
| 20260504170205 | 56 | 122 | 2.6 | 6.1 | 0.00 | 0.00 | 0.00 | 34 | 1015.8 |
| 20260504160123 | 54 | 92 | 0.9 | 3.5 | 0.00 | 0.00 | 0.00 | 34 | 1015.9 |
| 20260504151050 | 51 | 328 | 4.3 | 7.0 | 0.00 | 0.00 | 0.00 | 41 | 1016.0 |
| 20260504150548 | 51 | 328 | 3.5 | 7.8 | 0.00 | 0.00 | 0.00 | 40 | 1016.0 |
| 20260504141014 | 49 | 317 | 8.7 | 9.6 | 0.00 | 0.00 | 0.00 | 47 | 1016.0 |
| 20260504140510 | 49 | 10 | 8.7 | 12.2 | 0.00 | 0.00 | 0.00 | 46 | 1016.2 |
| 20260504130435 | 46 | 69 | 3.5 | 8.7 | 0.00 | 0.00 | 0.00 | 50 | 1015.5 |
| 20260504110322 | 37 | 141 | 1.7 | 2.6 | 0.00 | 0.00 | 0.00 | 69 | 1013.5 |
| 20260504100240 | 39 | 72 | 0.9 | 1.7 | 0.00 | 0.00 | 0.00 | 66 | 1012.5 |
| 20260504081633 | 41 | 116 | 4.3 | 4.3 | 0.00 | 0.00 | 0.00 | 62 | 1012.0 |
| 20260504081129 | 41 | 124 | 1.7 | 2.6 | 0.00 | 0.00 | 0.00 | 62 | 1012.0 |
| 20260504080626 | 41 | 99 | 1.7 | 3.5 | 0.00 | 0.00 | 0.00 | 61 | 1012.2 |
| 20260504080122 | 42 | 83 | 1.7 | 2.6 | 0.00 | 0.00 | 0.00 | 61 | 1011.8 |